Date String (YYYY-MM-DD hh:mm:ss) UTC,Instrument flags,Ambient pressure (hPa),Sample flow (lpm),Bypass flow (lpm),Sample temperature (°C),Ambient temperature (°C),ASC tube jacket temperature (°C),LED temperature (°C),Box temperature (°C),Sample RH (%),Span deviation,Mass concentration (μg/m³),Mass concentration (μg/m³),Mass concentration (μg/m³)
DateTimeUTC,F1_M11,P_M11,Q1_M11,Q2_M11,T1_M11,T2_M11,T3_M11,T4_M11,T5_M11,U1_M11,ZSPAN_M11,X0_M11,X2_M11,X1_M11
2022-05-28 07:00:00,,0821.6,4.99,0.00,29.6,28.6,00.0,38.5,31.5,13.2,0000.0,0013.87,0004.41,0003.10
2022-05-28 07:01:00,,0821.6,4.99,0.00,29.7,28.6,00.0,38.5,31.5,13.2,0000.0,0013.58,0004.38,0003.10
2022-05-28 07:02:00,,0821.7,5.00,0.00,29.7,28.6,00.0,38.5,31.5,13.1,0000.0,0013.72,0004.37,0003.11
2022-05-28 07:03:00,,0821.7,5.00,0.00,29.7,28.6,00.0,38.5,31.5,13.0,0000.0,0013.85,0004.33,0003.12
2022-05-28 07:04:00,,0821.7,5.00,0.00,29.7,28.6,00.0,38.5,31.5,12.9,0000.0,0013.42,0004.28,0003.11
2022-05-28 07:05:00,,0821.6,5.00,0.00,29.7,28.6,00.0,38.6,31.5,12.9,0000.0,0013.44,0004.23,0003.11
2022-05-28 07:06:00,,0821.6,4.99,0.00,29.7,28.6,00.0,38.6,31.5,12.7,0000.0,0013.17,0004.22,0003.10
2022-05-28 07:07:00,,0821.5,5.00,0.00,29.7,28.6,00.0,38.6,31.5,12.7,0000.0,0012.68,0004.19,0003.09
2022-05-28 07:08:00,,0821.5,5.00,0.00,29.7,28.6,00.0,38.6,31.5,12.8,0000.0,0012.50,0004.19,0003.07
2022-05-28 07:09:00,,0821.4,5.01,0.00,29.7,28.6,00.0,38.6,31.6,12.8,0000.0,0012.50,0004.21,0003.05
2022-05-28 07:10:00,,0821.4,4.98,0.00,29.7,28.7,00.0,38.6,31.6,12.7,0000.0,0012.37,0004.21,0003.04
2022-05-28 07:11:00,,0821.5,4.98,0.00,29.7,28.7,00.0,38.6,31.6,12.9,0000.0,0011.61,0004.20,0003.03
2022-05-28 07:12:00,,0821.5,4.99,0.00,29.8,28.7,00.0,38.6,31.6,12.9,0000.0,0011.49,0004.19,0003.03
2022-05-28 07:13:00,,0821.5,5.00,0.00,29.8,28.7,00.0,38.6,31.6,12.8,0000.0,0011.32,0004.19,0003.03
2022-05-28 07:14:00,,0821.5,5.00,0.00,29.8,28.7,00.0,38.6,31.6,12.9,0000.0,0010.25,0004.19,0003.01
2022-05-28 07:15:00,,0821.5,5.00,0.00,29.8,28.7,00.0,38.6,31.6,13.4,0000.0,0010.19,0004.19,0003.02
2022-05-28 07:16:00,,0821.5,5.00,0.00,29.8,28.7,00.0,38.7,31.6,13.1,0000.0,0010.28,0004.15,0003.03
2022-05-28 07:17:00,,0821.4,5.01,0.00,29.8,28.7,00.0,38.7,31.6,12.9,0000.0,0010.28,0004.14,0003.03
2022-05-28 07:18:00,,0821.4,5.00,0.00,29.8,28.7,00.0,38.7,31.6,12.9,0000.0,0010.63,0004.18,0003.05
2022-05-28 07:19:00,,0821.4,5.00,0.00,29.8,28.8,00.0,38.7,31.7,13.1,0000.0,0011.38,0004.19,0003.07
2022-05-28 07:20:00,,0821.4,4.99,0.00,29.8,28.8,00.0,38.7,31.7,13.0,0000.0,0011.53,0004.17,0003.10
2022-05-28 07:21:00,,0821.4,5.00,0.00,29.8,28.8,00.0,38.7,31.7,13.0,0000.0,0011.47,0004.17,0003.12
2022-05-28 07:22:00,,0821.4,5.00,0.00,29.8,28.8,00.0,38.7,31.7,12.8,0000.0,0012.15,0004.16,0003.12
2022-05-28 07:23:00,,0821.4,5.01,0.00,29.9,28.8,00.0,38.7,31.7,12.9,0000.0,0011.93,0004.14,0003.11
2022-05-28 07:24:00,,0821.4,5.01,0.00,29.9,28.8,00.0,38.7,31.7,12.8,0000.0,0011.71,0004.13,0003.11
2022-05-28 07:25:00,,0821.4,5.00,0.00,29.9,28.8,00.0,38.7,31.7,13.1,0000.0,0011.86,0004.14,0003.12
2022-05-28 07:26:00,,0821.4,4.99,0.00,29.9,28.8,00.0,38.7,31.7,12.8,0000.0,0012.79,0004.18,0003.11
2022-05-28 07:27:00,,0821.4,4.99,0.00,29.9,28.8,00.0,38.8,31.7,12.7,0000.0,0012.76,0004.21,0003.10
2022-05-28 07:28:00,,0821.4,5.00,0.00,29.9,28.8,00.0,38.8,31.7,12.8,0000.0,0013.16,0004.23,0003.11
2022-05-28 07:29:00,,0821.3,5.01,0.00,29.9,28.8,00.0,38.8,31.7,13.0,0000.0,0012.65,0004.20,0003.11
2022-05-28 07:30:00,,0821.3,5.00,0.00,29.9,28.8,00.0,38.8,31.7,12.6,0000.0,0012.08,0004.17,0003.11
2022-05-28 07:31:00,,0821.3,5.00,0.00,29.9,28.8,00.0,38.8,31.7,12.7,0000.0,0012.05,0004.15,0003.11
2022-05-28 07:32:00,,0821.2,5.00,0.00,29.9,28.8,00.0,38.8,31.7,12.7,0000.0,0012.17,0004.20,0003.12
2022-05-28 07:33:00,,0821.2,5.01,0.00,29.9,28.8,00.0,38.8,31.7,12.7,0000.0,0011.54,0004.24,0003.13
2022-05-28 07:34:00,,0821.2,5.00,0.00,29.9,28.8,00.0,38.8,31.7,12.7,0000.0,0011.18,0004.20,0003.14
2022-05-28 07:35:00,,0821.2,5.00,0.00,29.9,28.8,00.0,38.8,31.7,12.6,0000.0,0011.16,0004.22,0003.14
2022-05-28 07:36:00,,0821.2,5.00,0.00,29.9,28.8,00.0,38.8,31.7,12.6,0000.0,0011.23,0004.23,0003.14
2022-05-28 07:37:00,,0821.2,5.01,0.00,29.9,28.8,00.0,38.8,31.7,12.6,0000.0,0010.41,0004.17,0003.15
2022-05-28 07:38:00,,0821.1,5.00,0.00,29.9,28.8,00.0,38.8,31.8,12.6,0000.0,0010.02,0004.16,0003.16
2022-05-28 07:39:00,,0821.1,4.99,0.00,29.9,28.8,00.0,38.8,31.8,12.6,0000.0,0009.36,0004.15,0003.17
2022-05-28 07:40:00,,0821.1,5.01,0.00,29.9,28.8,00.0,38.8,31.7,12.7,0000.0,0009.10,0004.14,0003.16
2022-05-28 07:41:00,,0821.1,4.99,0.00,29.9,28.8,00.0,38.8,31.8,12.7,0000.0,0009.08,0004.18,0003.16
2022-05-28 07:42:00,,0821.1,5.00,0.00,29.9,28.8,00.0,38.8,31.7,12.6,0000.0,0009.90,0004.20,0003.16
2022-05-28 07:43:00,,0821.1,5.01,0.00,29.9,28.8,00.0,38.8,31.8,12.6,0000.0,0010.41,0004.16,0003.16
2022-05-28 07:44:00,,0821.1,5.00,0.00,29.9,28.8,00.0,38.8,31.8,12.6,0000.0,0010.83,0004.15,0003.16
2022-05-28 07:45:00,,0821.1,4.99,0.00,30.0,28.8,00.0,38.8,31.8,12.6,0000.0,0010.96,0004.18,0003.16
2022-05-28 07:46:00,,0821.1,5.01,0.00,30.0,28.8,00.0,38.8,31.8,12.6,0000.0,0011.69,0004.17,0003.16
2022-05-28 07:47:00,,0821.1,5.01,0.00,30.0,28.8,00.0,38.9,31.7,12.5,0000.0,0011.87,0004.17,0003.17
2022-05-28 07:48:00,,0821.1,4.99,0.00,30.0,28.8,00.0,38.9,31.7,12.6,0000.0,0011.97,0004.19,0003.18
2022-05-28 07:49:00,,0821.1,5.01,0.00,30.0,28.8,00.0,38.9,31.8,12.7,0000.0,0012.38,0004.21,0003.18
2022-05-28 07:50:00,,0821.1,5.01,0.00,30.0,28.8,00.0,38.9,31.7,12.7,0000.0,0013.11,0004.21,0003.19
2022-05-28 07:51:00,,0821.1,4.99,0.00,30.0,28.8,00.0,38.9,31.7,12.7,0000.0,0014.05,0004.24,0003.20
2022-05-28 07:52:00,,0821.0,5.00,0.00,30.0,28.8,00.0,38.9,31.8,12.7,0000.0,0014.25,0004.25,0003.21
2022-05-28 07:53:00,,0821.0,5.01,0.00,30.0,28.8,00.0,38.9,31.8,12.5,0000.0,0013.40,0004.29,0003.21
2022-05-28 07:54:00,,0821.0,5.00,0.00,30.0,28.8,00.0,38.9,31.8,12.4,0000.0,0013.17,0004.32,0003.21
2022-05-28 07:55:00,,0820.9,5.00,0.00,30.0,28.9,00.0,38.9,31.8,12.5,0000.0,0012.95,0004.27,0003.21
2022-05-28 07:56:00,,0820.9,5.00,0.00,30.0,28.9,00.0,38.9,31.8,12.5,0000.0,0013.07,0004.26,0003.21
2022-05-28 07:57:00,,0820.9,5.00,0.00,30.0,28.9,00.0,38.9,31.8,12.6,0000.0,0012.88,0004.26,0003.20
2022-05-28 07:58:00,,0821.0,4.99,0.00,30.0,28.9,00.0,38.9,31.8,12.6,0000.0,0013.06,0004.25,0003.19
2022-05-28 07:59:00,,0821.0,5.00,0.00,30.0,28.9,00.0,38.9,31.8,12.6,0000.0,0013.33,0004.27,0003.18
